EW0734 Weather Reports


Display with metric or nautical units.
time (UTC)temp
F
wind
direction
speed
MPH
gust
MPH
rain 1hr
in
rain 24hr
in
rain mn
in
humidity
%
barometer
mb
20260508031106 49 0.0 0.0 0.00 0.00 0.00 80 1010.3
20260508030046 49 0.0 0.0 0.00 0.00 0.00 81 1010.4
20260508025025 49 0.0 0.0 0.00 0.00 0.00 83 1010.3
20260508024026 50 0.0 0.0 0.00 0.00 0.00 83 1010.3
20260508023045 50 0.0 0.0 0.00 0.00 0.00 84 1010.3
20260508022025 50 0.0 0.0 0.00 0.00 0.00 85 1010.3
20260508021046 50 0.0 0.0 0.00 0.00 0.00 86 1010.3
20260508020025 51 0.0 0.0 0.00 0.00 0.00 86 1010.2
20260508015025 51 0.0 0.0 0.00 0.00 0.00 86 1010.1
20260508014025 51 0.0 0.0 0.00 0.00 0.00 86 1010.0
20260508013025 51 0.0 0.0 0.00 0.00 0.00 86 1009.8
20260508012025 51 0.0 0.0 0.00 0.00 0.00 86 1009.7
20260508011025 51 0.0 0.0 0.00 0.00 0.00 86 1009.7
20260508010024 51 0.0 0.0 0.00 0.00 0.00 85 1009.5
20260508005046 51 0.0 0.0 0.00 0.00 0.00 85 1009.4
20260508004029 52 0.0 0.0 0.00 0.00 0.00 84 1009.4
20260508003025 52 0.0 0.0 0.00 0.00 0.00 84 1009.3
20260508002025 53 0.0 0.0 0.00 0.00 0.00 83 1009.2
20260508001106 53 0.0 0.0 0.00 0.00 0.00 83 1009.2
20260508000026 54 0.0 0.0 0.00 0.00 0.00 82 1009.1
20260507235046 54 0.0 0.0 0.00 0.00 0.00 80 1008.9
20260507234026 55 0.0 1.0 0.00 0.00 0.00 80 1008.8
20260507233026 55 0.0 1.0 0.00 0.00 0.00 79 1008.6
20260507232025 55 0.0 1.0 0.00 0.00 0.00 79 1008.5
20260507231045 56 0.0 1.0 0.00 0.00 0.00 80 1008.4
20260507230025 56 0.0 1.0 0.00 0.00 0.00 78 1008.3
20260507225025 56 0.0 2.0 0.00 0.00 0.00 78 1008.3
20260507224025 57 0.0 1.0 0.00 0.00 0.00 77 1008.2
20260507223024 57 68 1.0 4.0 0.00 0.00 0.00 76 1008.2
20260507222025 57 68 1.0 4.0 0.00 0.00 0.00 76 1008.3
20260507221025 58 68 1.0 7.0 0.00 0.00 0.00 75 1008.2
20260507220045 58 68 1.0 3.0 0.00 0.00 0.00 74 1008.0
20260507215025 58 0.0 1.0 0.00 0.00 0.00 74 1008.1
20260507214025 58 68 1.0 5.0 0.00 0.00 0.00 72 1008.0
20260507213024 58 0.0 2.0 0.00 0.00 0.00 71 1008.1
20260507212025 58 0.0 4.0 0.00 0.00 0.00 71 1008.2
20260507211045 58 0.0 2.0 0.00 0.00 0.00 73 1008.2
20260507210025 58 0.0 3.0 0.00 0.00 0.00 73 1008.4
20260507205045 58 68 1.0 3.0 0.00 0.00 0.00 75 1008.4
20260507204025 58 68 1.0 5.0 0.00 0.00 0.00 71 1008.3
20260507203024 57 90 1.0 6.0 0.00 0.00 0.00 70 1008.4
20260507202024 57 90 1.0 4.0 0.00 0.00 0.00 72 1008.4
20260507201045 57 90 1.0 5.0 0.00 0.00 0.00 71 1008.5
20260507200025 56 0.0 1.0 0.00 0.00 0.00 71 1008.3
20260507195025 57 90 1.0 3.0 0.00 0.00 0.00 68 1008.6
20260507194105 57 0.0 4.0 0.00 0.00 0.00 67 1008.9
20260507193026 57 0.0 2.0 0.00 0.00 0.00 68 1008.8
20260507192025 57 0.0 1.0 0.00 0.00 0.00 73 1008.5
20260507191025 57 0.0 6.0 0.00 0.00 0.00 74 1008.5
20260507190024 57 0.0 3.0 0.00 0.00 0.00 74 1009.1
20260507185025 55 0.0 1.0 0.00 0.00 0.00 79 1009.2
20260507184025 55 0.0 0.0 0.00 0.00 0.00 77 1009.4
20260507183024 56 0.0 0.0 0.00 0.00 0.00 74 1009.6
20260507182025 57 0.0 1.0 0.00 0.00 0.00 64 1009.8
20260507181025 57 0.0 1.0 0.00 0.00 0.00 62 1009.5
20260507180025 56 0.0 2.0 0.00 0.00 0.00 62 1009.5
20260507175024 56 0.0 3.0 0.00 0.00 0.00 59 1009.8
20260507174026 56 0.0 2.0 0.00 0.00 0.00 58 1009.6
20260507173025 56 0.0 2.0 0.00 0.00 0.00 65 1009.7
20260507172025 56 0.0 2.0 0.00 0.00 0.00 66 1009.8
20260507171025 56 68 1.0 4.0 0.00 0.00 0.00 63 1010.2
20260507170024 56 0.0 2.0 0.00 0.00 0.00 66 1010.1
20260507165025 56 0.0 2.0 0.00 0.00 0.00 70 1010.3
20260507164025 55 0.0 0.0 0.00 0.00 0.00 69 1010.5
20260507163025 55 0.0 2.0 0.00 0.00 0.00 65 1010.8
20260507162024 56 0.0 1.0 0.00 0.00 0.00 67 1010.7
20260507161025 56 0.0 3.0 0.00 0.00 0.00 69 1010.6
20260507160025 56 0.0 1.0 0.00 0.00 0.00 69 1010.6
20260507155025 56 0.0 1.0 0.00 0.00 0.00 72 1010.8
20260507154025 57 0.0 1.0 0.00 0.00 0.00 72 1010.6
20260507153044 57 0.0 1.0 0.00 0.00 0.00 69 1010.7
20260507152025 57 0.0 1.0 0.00 0.00 0.00 69 1010.9
20260507151024 57 0.0 1.0 0.00 0.00 0.00 73 1010.7
20260507150024 57 0.0 1.0 0.00 0.00 0.00 75 1010.7
20260507145105 56 0.0 2.0 0.00 0.00 0.00 74 1011.0
20260507144024 56 0.0 1.0 0.00 0.00 0.00 75 1011.3
20260507143025 56 0.0 6.0 0.00 0.00 0.00 73 1011.4
20260507142024 56 0.0 3.0 0.00 0.00 0.00 72 1011.3
20260507141024 56 0.0 4.0 0.00 0.00 0.00 72 1011.2
20260507140025 57 0.0 1.0 0.00 0.00 0.00 73 1011.5
20260507135025 57 0.0 2.0 0.00 0.00 0.00 73 1011.5
20260507134025 57 0.0 3.0 0.00 0.00 0.00 74 1011.3
20260507133024 57 0.0 3.0 0.00 0.00 0.00 73 1011.2
20260507132026 57 0.0 2.0 0.00 0.00 0.00 79 1011.2
20260507131026 56 68 1.0 5.0 0.00 0.00 0.00 78 1011.1
20260507130050 56 0.0 6.0 0.00 0.00 0.00 77 1011.2
20260507125027 56 0.0 3.0 0.00 0.00 0.00 79 1011.3
20260507124024 56 68 1.0 5.0 0.00 0.00 0.00 80 1011.1
20260507123026 56 0.0 5.0 0.00 0.00 0.00 83 1011.1
20260507122027 56 0.0 1.0 0.00 0.00 0.00 85 1011.0
20260507121027 55 0.0 2.0 0.00 0.00 0.00 85 1010.7
20260507120026 55 0.0 5.0 0.00 0.00 0.00 86 1010.4
20260507115026 55 0.0 3.0 0.00 0.00 0.00 86 1010.7
20260507114026 54 0.0 6.0 0.00 0.00 0.00 86 1010.8
20260507113026 54 0.0 3.0 0.00 0.00 0.00 86 1010.6
20260507112026 54 0.0 3.0 0.00 0.00 0.00 86 1010.3
20260507111106 54 0.0 0.0 0.00 0.00 0.00 85 1010.6
20260507110025 0 0.0 0.0 0.00 0.00 0.00
20260507105025 0 0.0 0.0 0.00 0.00 0.00
20260507104543 0 0.0 0.0 0.00 0.00 0.00
20260507104021 0 0.0 0.0 0.00 0.00 0.00
20260507103605 0 0.0 0.0 0.00 0.00 0.00
20260507102525 0 0.0 0.0 0.00 0.00 0.00
20260507102044 0 0.0 0.0 0.00 0.00 0.00
20260507101523 0 0.0 0.0 0.00 0.00 0.00
20260507101026 0 0.0 0.0 0.00 0.00 0.00
20260507100024 0 0.0 0.0 0.00 0.00 0.00
20260507095559 0 0.0 0.0 0.00 0.00 0.00
20260507095059 0 0.0 0.0 0.00 0.00 0.00
20260507094524 0 0.0 0.0 0.00 0.00 0.00
20260507093525 0 0.0 0.0 0.00 0.00 0.00
20260507093039 0 0.0 0.0 0.00 0.00 0.00
20260507092519 0 0.0 0.0 0.00 0.00 0.00
20260507091544 0 0.0 0.0 0.00 0.00 0.00
20260507090607 0 0.0 0.0 0.00 0.00 0.00 76
20260507090103 0 0.0 0.0 0.00 0.00 0.00 76
20260507085046 54 0.0 1.0 0.00 0.00 0.00 71 1009.6
20260507084026 55 0.0 1.0 0.00 0.00 0.00 70 1009.9
20260507083027 55 0.0 0.0 0.00 0.00 0.00 67 1009.9
20260507082026 55 0.0 1.0 0.00 0.00 0.00 69 1009.9
20260507081026 55 0.0 0.0 0.00 0.00 0.00 70 1010.2
20260507080026 55 0.0 1.0 0.00 0.00 0.00 70 1009.5
20260507075026 56 0.0 1.0 0.00 0.00 0.00 65 1009.3
20260507074026 56 0.0 1.0 0.00 0.00 0.00 61 1009.2
20260507073025 56 0.0 1.0 0.00 0.00 0.00 63 1009.2
20260507072105 56 0.0 0.0 0.00 0.00 0.00 64 1009.1
20260507071025 56 0.0 0.0 0.00 0.00 0.00 65 1009.1
20260507070025 56 0.0 2.0 0.00 0.00 0.00 69 1009.3
20260507065025 56 0.0 2.0 0.00 0.00 0.00 70 1009.1
20260507064026 57 68 1.0 7.0 0.00 0.00 0.00 66 1009.1
20260507063025 57 0.0 3.0 0.00 0.00 0.00 60 1009.4
20260507062046 57 0.0 3.0 0.00 0.00 0.00 58 1009.2
20260507061025 57 0.0 1.0 0.00 0.00 0.00 56 1008.5
20260507060045 58 0.0 1.0 0.00 0.00 0.00 63 1007.7
20260507055046 58 0.0 3.0 0.00 0.00 0.00 66 1007.5
20260507054045 59 0.0 1.0 0.00 0.00 0.00 65 1007.7
20260507053025 60 0.0 2.0 0.00 0.00 0.00 68 1008.5
20260507052025 60 0.0 3.0 0.00 0.00 0.00 76 1008.9
20260507051025 61 0.0 3.0 0.00 0.00 0.00 80 1009.1
20260507050025 62 0.0 2.0 0.00 0.00 0.00 72 1008.9
20260507045025 63 0.0 2.0 0.00 0.00 0.00 76 1008.7
20260507044025 64 68 1.0 6.0 0.00 0.00 0.00 77 1008.2
20260507043025 64 0.0 0.0 0.00 0.00 0.00 59 1008.7
20260507042025 64 0.0 0.0 0.00 0.00 0.00 65 1008.2
20260507041025 64 0.0 4.0 0.00 0.00 0.00 66 1008.1
20260507040046 64 0.0 0.0 0.00 0.00 0.00 68 1008.3
20260507035025 64 0.0 0.0 0.00 0.00 0.00 73 1008.0
20260507034026 64 0.0 0.0 0.00 0.00 0.00 75 1007.9
20260507033025 64 0.0 0.0 0.00 0.00 0.00 76 1007.7
20260507032025 64 0.0 0.0 0.00 0.00 0.00 72 1007.8